EW3511 Weather Reports


time (UTC)temp
C
wind
direction
speed
KPH
gust
KPH
rain 1hr
cm
rain 24hr
cm
rain mn
cm
humidity
%
barometer
mb
20260901110557 22 61 1.6 3.2 0.00 0.00 0.00 56 1021.6
20260901105656 22 86 1.6 4.8 0.00 0.00 0.00 55 1021.7
20260901104558 23 21 1.6 4.8 0.00 0.00 0.00 55 1021.7
20260901103557 23 29 3.2 9.7 0.00 0.00 0.00 54 1021.6
20260901102558 24 45 1.6 4.8 0.00 0.00 0.00 54 1021.8
20260901101558 23 24 3.2 8.0 0.00 0.00 0.00 56 1021.7
20260901100559 24 123 3.2 8.0 0.00 0.00 0.00 53 1021.7
20260901095559 23 173 3.2 8.0 0.00 0.00 0.00 54 1021.8
20260901094640 22 72 1.6 4.8 0.00 0.00 0.00 57 1021.8
20260901093600 22 176 1.6 8.0 0.00 0.00 0.00 58 1021.8
20260901092601 22 40 3.2 4.8 0.00 0.00 0.00 60 1021.9
20260901091601 22 354 1.6 8.0 0.00 0.00 0.00 59 1022.0
20260901090601 21 0 0.0 3.2 0.00 0.00 0.00 62 1021.9
20260901085602 22 67 1.6 4.8 0.00 0.00 0.00 61 1022.0
20260901084602 22 57 1.6 3.2 0.00 0.00 0.00 61 1022.0
20260901083603 21 90 1.6 3.2 0.00 0.00 0.00 61 1022.0
20260901082603 21 5 1.6 4.8 0.00 0.00 0.00 63 1022.0
20260901081603 21 103 1.6 4.8 0.00 0.00 0.00 64 1021.9
20260901080603 21 112 1.6 4.8 0.00 0.00 0.00 64 1021.9
20260901075604 20 107 1.6 8.0 0.00 0.00 0.00 65 1022.0
20260901074605 20 115 1.6 3.2 0.00 0.00 0.00 66 1021.9
20260901073533 20 117 3.2 8.0 0.00 0.00 0.00 68 1022.0
20260901072533 20 132 1.6 4.8 0.00 0.00 0.00 69 1022.0
20260901071554 20 113 1.6 4.8 0.00 0.00 0.00 71 1022.0
20260901070534 19 139 1.6 4.8 0.00 0.00 0.00 72 1021.9
20260901065535 18 103 1.6 3.2 0.00 0.00 0.00 71 1021.9
20260901064555 17 102 1.6 3.2 0.00 0.00 0.00 74 1021.9
20260901063536 17 119 3.2 3.2 0.00 0.00 0.00 74 1021.9
20260901062537 17 116 1.6 4.8 0.00 0.00 0.00 73 1021.9
20260901061536 17 99 0.0 3.2 0.00 0.00 0.00 77 1021.9
20260901060536 16 114 1.6 3.2 0.00 0.00 0.00 81 1022.0
20260901055557 16 110 0.0 3.2 0.00 0.00 0.00 80 1022.0
20260901054540 16 105 0.0 1.6 0.00 0.00 0.00 80 1022.0
20260901053539 15 0.0 0.0 0.00 0.00 0.00 84 1021.8
20260901052538 13 108 0.0 1.6 0.00 0.00 0.00 88 1021.7
20260901051539 13 0.0 0.0 0.00 0.00 0.00 94 1021.6
20260901050541 12 102 0.0 3.2 0.00 0.00 0.00 95 1021.6
20260901045539 11 0.0 0.0 0.00 0.00 0.00 96 1021.5
20260901044600 11 0.0 0.0 0.00 0.00 0.00 96 1021.4
20260901043601 11 0.0 0.0 0.00 0.00 0.00 96 1021.5
20260901042541 12 0.0 0.0 0.00 0.00 0.00 95 1021.5
20260901041541 12 0.0 0.0 0.00 0.00 0.00 95 1021.4
20260901040541 12 0.0 0.0 0.00 0.00 0.00 94 1021.3
20260901035542 12 0.0 0.0 0.00 0.00 0.00 94 1021.4
20260901034602 12 0.0 0.0 0.00 0.00 0.00 93 1021.4
20260901033543 13 0.0 0.0 0.00 0.00 0.00 91 1021.5
20260901032544 13 0.0 0.0 0.00 0.05 0.00 90 1021.5
20260901031544 14 0.0 0.0 0.00 0.13 0.00 88 1021.4
20260901030544 14 0.0 0.0 0.00 0.13 0.00 87 1021.4
20260901025544 14 93 0.0 1.6 0.00 0.13 0.00 87 1021.5
20260901024605 14 99 0.0 3.2 0.00 0.13 0.00 86 1021.4
20260901023547 14 101 0.0 1.6 0.00 0.13 0.00 88 1021.5
20260901022547 15 166 3.2 4.8 0.00 0.13 0.00 86 1021.5
20260901021606 15 0.0 0.0 0.00 0.13 0.00 87 1021.3
20260901020546 15 49 0.0 1.6 0.00 0.13 0.00 86 1021.3
20260901015608 15 0.0 0.0 0.00 0.13 0.00 86 1021.4
20260901014548 15 63 0.0 1.6 0.00 0.13 0.00 85 1021.4
20260901013608 15 0.0 0.0 0.00 0.13 0.00 86 1021.3
20260901012549 15 0.0 0.0 0.00 0.13 0.00 86 1021.3
20260901011550 15 0.0 0.0 0.00 0.13 0.00 85 1021.4
20260901010549 15 0.0 0.0 0.00 0.13 0.00 83 1021.4
20260901005549 15 0.0 0.0 0.00 0.13 0.00 85 1021.5
20260901004550 15 0.0 0.0 0.00 0.13 0.00 84 1021.4
20260901003550 15 73 0.0 1.6 0.00 0.13 0.00 81 1021.4
20260901002553 15 0.0 0.0 0.00 0.13 0.00 78 1021.4
20260901001551 16 79 0.0 1.6 0.00 0.13 0.00 76 1021.5
20260901000553 16 96 0.0 1.6 0.00 0.13 0.00 75 1021.5
20260831235612 16 104 0.0 3.2 0.00 0.13 0.00 75 1021.4
20260831234608 16 120 1.6 4.8 0.00 0.13 0.00 73 1021.5
20260831233613 17 124 1.6 3.2 0.00 0.13 0.00 72 1021.4
20260831232553 17 172 1.6 11.3 0.00 0.13 0.00 73 1021.4
20260831231553 17 150 1.6 4.8 0.00 0.13 0.00 72 1021.4
20260831230555 17 169 1.6 8.0 0.00 0.13 0.00 70 1021.4
20260831225555 17 168 1.6 9.7 0.00 0.13 0.00 69 1021.5
20260831224555 17 353 1.6 8.0 0.00 0.13 0.00 69 1021.4
20260831223555 18 54 3.2 9.7 0.00 0.13 0.00 69 1021.2
20260831222556 18 168 1.6 16.1 0.00 0.13 0.00 69 1021.2
20260831221617 18 230 3.2 9.7 0.00 0.13 0.00 69 1021.1
20260831220617 18 202 1.6 3.2 0.00 0.13 0.00 70 1020.9
20260831215557 18 182 1.6 9.7 0.00 0.13 0.13 71 1020.9
20260831214559 18 167 1.6 4.8 0.00 0.13 0.13 71 1020.7
20260831213558 18 139 1.6 3.2 0.00 0.13 0.13 71 1020.6
20260831212558 18 121 0.0 4.8 0.00 0.13 0.13 72 1020.4
20260831211559 19 76 0.0 3.2 0.00 0.13 0.13 72 1020.2
20260831210559 19 180 1.6 9.7 0.00 0.13 0.13 71 1020.1
20260831205600 19 71 1.6 8.0 0.00 0.13 0.13 71 1019.9
20260831204601 19 194 1.6 8.0 0.00 0.13 0.13 71 1019.8
20260831203601 19 140 3.2 9.7 0.00 0.13 0.13 71 1019.7
20260831202602 19 153 3.2 11.3 0.00 0.13 0.13 71 1019.5
20260831201601 18 159 1.6 8.0 0.00 0.13 0.13 73 1019.4
20260831200533 18 207 1.6 4.8 0.00 0.13 0.13 73 1019.2
20260831195534 18 178 1.6 4.8 0.00 0.13 0.13 74 1019.2
20260831194535 18 107 1.6 4.8 0.00 0.13 0.13 74 1019.1
20260831193535 18 143 0.0 3.2 0.00 0.13 0.13 74 1019.2
20260831192536 18 202 0.0 3.2 0.00 0.13 0.13 73 1019.1
20260831191537 18 116 0.0 1.6 0.00 0.13 0.13 73 1019.0
20260831190538 18 92 0.0 3.2 0.00 0.13 0.13 72 1019.0
20260831185537 19 129 1.6 3.2 0.00 0.13 0.13 71 1018.9
20260831184537 19 158 1.6 8.0 0.00 0.13 0.13 69 1018.7
20260831183618 20 133 1.6 8.0 0.00 0.13 0.13 68 1018.4
20260831182558 20 143 3.2 4.8 0.00 0.13 0.13 66 1018.3
20260831181538 20 201 3.2 14.5 0.00 0.13 0.13 64 1017.9
20260831180559 20 210 3.2 8.0 0.00 0.13 0.13 62 1017.7
20260831175559 21 156 3.2 11.3 0.00 0.13 0.13 61 1017.4
20260831174539 21 182 3.2 11.3 0.00 0.13 0.13 60 1017.5
20260831173620 21 188 4.8 11.3 0.00 0.13 0.13 60 1017.4
20260831172541 21 194 4.8 11.3 0.00 0.13 0.13 60 1017.3
20260831171540 21 181 3.2 11.3 0.00 0.13 0.13 60 1017.2
20260831170541 21 196 3.2 11.3 0.00 0.13 0.13 59 1017.1
20260831165541 21 194 3.2 12.9 0.00 0.13 0.13 58 1017.1
20260831164543 22 194 3.2 9.7 0.00 0.13 0.13 57 1017.1
20260831163543 22 61 3.2 8.0 0.00 0.13 0.13 55 1017.1
20260831162543 22 205 3.2 9.7 0.00 0.13 0.13 55 1017.1
20260831161545 23 286 3.2 12.9 0.00 0.13 0.13 54 1017.0
20260831160544 22 275 3.2 11.3 0.00 0.13 0.13 54 1016.7
20260831155544 22 218 4.8 12.9 0.00 0.13 0.13 54 1016.7
20260831154544 23 230 4.8 14.5 0.00 0.13 0.13 53 1016.7
20260831153545 23 217 4.8 14.5 0.00 0.13 0.13 51 1016.8
20260831152545 24 202 4.8 14.5 0.00 0.13 0.13 49 1016.9
20260831151545 24 74 3.2 11.3 0.00 0.13 0.13 49 1016.8
20260831150546 23 254 4.8 20.9 0.00 0.13 0.13 51 1017.0
20260831145547 23 189 4.8 9.7 0.00 0.13 0.13 53 1017.1
20260831144629 23 69 3.2 11.3 0.00 0.13 0.13 55 1017.1
20260831143547 23 148 3.2 9.7 0.00 0.13 0.13 56 1017.0
20260831142628 23 217 4.8 16.1 0.00 0.13 0.13 54 1017.0
20260831141548 24 12 3.2 12.9 0.00 0.13 0.13 55 1016.9
20260831140549 24 278 3.2 12.9 0.00 0.13 0.13 55 1017.0
20260831135609 25 120 3.2 11.3 0.00 0.13 0.13 55 1017.0
20260831134550 25 348 3.2 8.0 0.00 0.13 0.13 54 1017.0
20260831133550 25 217 4.8 14.5 0.00 0.13 0.13 54 1017.0
20260831132551 26 338 6.4 16.1 0.00 0.13 0.13 53 1016.9
20260831131551 26 326 4.8 12.9 0.00 0.13 0.13 55 1016.9
20260831130551 25 188 4.8 12.9 0.00 0.13 0.13 55 1016.9
20260831125611 26 16 3.2 11.3 0.00 0.13 0.13 55 1017.0
20260831124552 25 12 4.8 14.5 0.00 0.13 0.13 58 1017.0
20260831123612 25 173 4.8 12.9 0.00 0.13 0.13 58 1016.9
20260831122609 25 253 3.2 11.3 0.00 0.13 0.13 60 1017.0
20260831121553 25 171 3.2 12.9 0.00 0.13 0.13 60 1017.1
20260831120554 26 58 3.2 9.7 0.00 0.13 0.13 58 1017.1
20260831115555 26 210 4.8 14.5 0.00 0.13 0.13 59 1017.2
20260831114555 25 41 3.2 11.3 0.00 0.13 0.13 60 1017.3
20260831113554 25 264 3.2 11.3 0.00 0.13 0.13 61 1017.3
20260831112615 25 243 4.8 12.9 0.00 0.13 0.13 61 1017.4
20260831111555 25 228 3.2 11.3 0.00 0.13 0.13 61 1017.5